Location: Lake Harris Campground
(43.9775°N, 74.1317°W)
Time: 23:08:42
(UTC-05:00)

ISS - All Passes

Search period start: 10 December 2017 00:00
Search period end: 20 December 2017 00:00
Orbit: 402 x 407 km, 51.6° (Epoch: 11 December)

Date Brightness Start Highest point End Pass type
(mag) Time Alt. Az. Time Alt. Az. Time Alt. Az.
10 Dec - 12:49:37 10° SSW 12:52:31 29° SE 12:55:25 10° ENE daylight
10 Dec - 14:25:43 10° W 14:28:54 44° NNW 14:32:05 10° NE daylight
10 Dec - 16:03:19 10° WNW 16:05:57 21° N 16:08:34 10° NE daylight
10 Dec - 17:40:14 10° NW 17:43:08 28° NNE 17:46:03 10° ENE visible
10 Dec - 19:16:35 10° WNW 19:19:51 70° SW 19:23:07 10° SE visible
11 Dec - 11:58:20 10° S 12:00:28 16° SE 12:02:36 10° E daylight
11 Dec - 13:33:19 10° WSW 13:36:36 72° NNW 13:39:53 10° NE daylight
11 Dec - 15:10:45 10° WNW 15:13:29 24° N 15:16:14 10° NE daylight
11 Dec - 16:47:59 10° NW 16:50:42 23° N 16:53:26 10° ENE visible
11 Dec - 18:24:20 10° NW 18:27:37 68° NNE 18:30:54 10° ESE visible
11 Dec - 20:01:32 10° W 20:03:46 17° SW 20:06:00 10° S visible
12 Dec - 12:41:06 10° SW 12:44:21 66° SE 12:47:38 10° ENE daylight
12 Dec - 14:18:07 10° W 14:21:03 29° NNW 14:23:59 10° NE daylight
12 Dec - 15:55:38 10° NW 15:58:14 21° N 16:00:51 10° NE daylight
12 Dec - 17:32:08 10° NW 17:35:18 43° NNE 17:38:28 10° E visible
12 Dec - 19:08:46 10° WNW 19:11:43 30° SW 19:14:37 10° SSE visible
13 Dec - 11:49:09 10° SSW 11:52:11 35° SE 11:55:14 10° ENE daylight
13 Dec - 13:25:32 10° W 13:28:39 39° NNW 13:31:47 10° NE daylight
13 Dec - 15:03:09 10° NW 15:05:45 21° N 15:08:20 10° NE daylight
13 Dec - 16:39:56 10° NW 16:42:55 31° NNE 16:45:53 10° E daylight
13 Dec - 18:16:19 10° WNW 18:19:33 56° SW 18:22:46 10° SE visible
14 Dec - 10:57:36 10° S 11:00:04 20° SE 11:02:33 10° E daylight
14 Dec - 12:33:02 10° WSW 12:36:17 60° NNW 12:39:33 10° NE daylight
14 Dec - 14:10:33 10° WNW 14:13:15 22° N 14:15:56 10° NE daylight
14 Dec - 15:47:40 10° NW 15:50:27 25° NNE 15:53:15 10° ENE daylight
14 Dec - 17:24:00 10° WNW 17:27:18 82° NNE 17:30:35 10° ESE visible
14 Dec - 19:01:35 10° W 19:03:22 14° SW 19:05:08 10° SSW visible
15 Dec - 10:07:05 10° SSE 10:08:01 11° SE 10:08:58 10° ESE daylight
15 Dec - 11:40:42 10° SW 11:43:59 81° SSE 11:47:17 10° ENE daylight
15 Dec - 13:17:54 10° WNW 13:20:45 26° NNW 13:23:37 10° NE daylight
15 Dec - 14:55:19 10° NW 14:57:57 22° N 15:00:36 10° ENE daylight
15 Dec - 16:31:45 10° NW 16:34:58 49° NNE 16:38:11 10° ESE daylight
15 Dec - 18:08:32 10° W 18:11:17 25° SW 18:14:01 10° SSE visible
16 Dec - 10:48:36 10° SW 10:51:45 44° SE 10:54:54 10° ENE daylight
16 Dec - 12:25:14 10° W 12:28:17 34° NNW 12:31:22 10° NE daylight
16 Dec - 14:02:51 10° NW 14:05:25 21° N 14:08:01 10° NE daylight
16 Dec - 15:39:31 10° NW 15:42:34 34° NNE 15:45:36 10° E daylight
16 Dec - 17:15:57 10° WNW 17:19:07 45° SW 17:22:16 10° SE visible
17 Dec - 09:56:52 10° SSW 09:59:34 24° SE 10:02:18 10° E daylight
17 Dec - 11:32:40 10° WSW 11:35:52 50° NNW 11:39:06 10° NE daylight
17 Dec - 13:10:15 10° WNW 13:12:53 22° N 13:15:32 10° NE daylight
17 Dec - 14:47:14 10° NW 14:50:05 26° NNE 14:52:56 10° ENE daylight
17 Dec - 16:23:33 10° WNW 16:26:51 83° SW 16:30:08 10° SE daylight
17 Dec - 18:01:47 10° WSW 18:02:50 11° SW 18:03:53 10° SSW visible
18 Dec - 09:05:45 10° SSE 09:07:28 14° SE 09:09:11 10° E daylight
18 Dec - 10:40:14 10° WSW 10:43:31 84° NW 10:46:49 10° ENE daylight
18 Dec - 12:17:33 10° WNW 12:20:21 25° NNW 12:23:09 10° NE daylight
18 Dec - 13:54:52 10° NW 13:57:34 22° N 14:00:14 10° ENE daylight
18 Dec - 15:31:15 10° NW 15:34:31 58° NNE 15:37:45 10° ESE daylight
18 Dec - 17:08:14 10° W 17:10:45 20° SW 17:13:14 10° S visible
19 Dec - 09:47:59 10° SW 09:51:13 54° SE 09:54:26 10° ENE daylight
19 Dec - 11:24:51 10° W 11:27:50 31° NNW 11:30:50 10° NE daylight
19 Dec - 13:02:24 10° NW 13:04:59 21° N 13:07:35 10° NE daylight
19 Dec - 14:38:58 10° NW 14:42:05 38° NNE 14:45:12 10° E daylight
19 Dec - 16:15:30 10° WNW 16:18:33 36° SW 16:21:36 10° SSE daylight
